Date,TemperatureHighF,TemperatureAvgF,TemperatureLowF,DewpointHighF,DewpointAvgF,DewpointLowF,HumidityHigh,HumidityAvg,HumidityLow,PressureMaxIn,PressureMinIn,WindSpeedMaxMPH,WindSpeedAvgMPH,GustSpeedMaxMPH,PrecipitationSumIn
2013-3-5,34,31,28,25,20,16,86,67,48,30.24,30.08,7,2,10,0.00
2013-3-6,33,29,23,30,25,20,92,87,80,30.08,29.80,11,2,11,0.01
2013-3-7,43,35,26,31,27,21,91,72,51,30.13,29.89,21,6,21,0.01
2013-3-8,46,33,19,28,22,16,89,66,38,30.14,30.04,11,2,16,0.00
2013-3-9,47,37,25,26,23,19,81,58,39,30.44,30.14,19,5,21,0.00
2013-3-10,48,35,24,29,24,20,92,66,41,30.45,30.24,24,8,29,0.00
2013-3-11,45,38,30,28,21,15,71,52,31,30.28,30.20,19,7,27,0.00
2013-3-12,35,31,27,32,25,16,92,79,48,30.28,30.16,5,1,9,0.14
2013-3-13,54,44,34,43,37,30,91,78,53,30.25,30.17,14,3,22,0.02
2013-3-14,52,41,32,40,34,29,90,77,43,30.18,29.99,8,2,14,0.00
2013-3-15,53,48,42,34,31,25,70,53,35,30.08,29.96,28,14,36,0.00
2013-3-16,45,39,30,37,33,27,90,80,64,30.03,29.67,26,7,32,0.04
2013-3-17,39,32,28,31,24,18,90,72,51,30.02,29.61,37,12,37,0.02
2013-3-18,36,31,24,26,20,18,89,66,52,30.15,29.98,27,11,32,0.00
2013-3-19,43,31,20,22,18,11,83,60,30,30.39,30.07,15,5,20,0.00
2013-3-20,44,33,26,38,27,15,90,79,58,30.07,29.58,30,4,42,0.13
2013-3-21,37,32,29,31,21,15,90,63,43,30.03,29.72,32,14,35,0.00
2013-3-22,34,27,21,23,19,16,90,74,52,30.33,30.03,13,4,20,0.00
2013-3-23,32,22,16,24,17,12,90,82,63,30.46,30.33,8,2,13,0.10
2013-3-24,37,24,14,21,16,11,92,72,41,30.54,30.36,10,2,15,0.00
2013-3-25,44,28,14,23,17,11,92,67,38,30.37,30.16,12,2,18,0.00
2013-3-26,51,34,20,28,23,17,89,65,39,30.16,30.03,11,2,15,0.00
2013-3-27,51,37,26,36,28,22,88,71,44,30.08,30.04,15,2,19,0.00
2013-3-28,50,39,31,39,34,28,90,82,60,30.13,30.07,14,2,18,0.00
2013-3-29,54,41,35,42,36,32,90,81,47,30.24,30.13,22,4,28,0.13
2013-3-30,60,45,28,41,31,26,91,63,29,30.32,30.14,17,5,20,0.00
2013-3-31,62,44,29,35,30,26,92,62,35,30.15,29.99,17,2,22,0.00